Fort Morgan, CO

10:51 AM MDT on March 28, 2017 (GMT -0600)
Fort Morgan

Weather History for KFMM - November, 2012

Change the Weather History Date:

Saturday, November 10, 2012

  Actual Average (KAKO) Record (KAKO)
Temperature  
Mean Temperature 32 °F -  
Max Temperature 45 °F 51 °F 76 °F (1958)
Min Temperature 19 °F 24 °F -5 °F (1950)
Degree Days  
Heating Degree Days 33    
Moisture  
Dew Point 28 °F    
Average Humidity 82    
Maximum Humidity 98    
Minimum Humidity 59    
Precipitation  
Precipitation 0.00 in - - ()
Sea Level Pressure  
Sea Level Pressure 29.61 in    
Wind  
Wind Speed 13 mph ()    
Max Wind Speed 30 mph    
Max Gust Speed 37 mph    
Visibility 8.8 miles    
Events      
Averages and records for this station are not official NWS values.
T = Trace of Precipitation, MM = Missing Value Source: Averaged Metar Reports

Daily Weather History Graph

Daily Weather History Graph

Search for Another Location

Airport or City:

Trip Planner

Search our weather history database for the weather conditions in past years. The results will help you decide how hot, cold, wet, or windy it might be!

Date:

Astronomy

Nov. 10, 2012 Rise Set
Actual Time 6:35 AM MST 4:41 PM MST
Civil Twilight 6:07 AM MST 5:10 PM MST
Nautical Twilight 5:34 AM MST 5:43 PM MST
Astronomical Twilight 5:02 AM MST 6:15 PM MST
Moon 2:43 AM MST (11/10) 2:30 PM MST (11/10)
Length of Visible Light 11h 03m
Length of Day
10h 06m
Waning Crescent, 14% of the Moon is Illuminated
Nov 10
Waning Crescent
Nov 13
New
Nov 20
First Quarter
Nov 28
Full
Dec 6
Last Quarter

Hourly Weather History & Observations

Time (MST) Temp. Windchill Dew Point Humidity Pressure Visibility Wind Dir Wind Speed Gust Speed Precip Events Conditions
12:15 AM 38.3 °F 33.2 °F 31.5 °F 76% 29.53 in 10.0 mi SW 6.9 mph - N/A   Clear
12:35 AM 38.3 °F 31.4 °F 30.6 °F 74% 29.53 in 10.0 mi South 10.4 mph - N/A   Clear
12:55 AM 41.4 °F 35.7 °F 31.6 °F 68% 29.52 in 10.0 mi SSW 9.2 mph - N/A   Clear
1:15 AM 40.3 °F 35.5 °F 30.9 °F 69% 29.53 in 10.0 mi SSW 6.9 mph - N/A   Clear
1:35 AM 40.1 °F 34.7 °F 31.1 °F 70% 29.52 in 10.0 mi SSW 8.1 mph - N/A   Clear
3:15 AM 41.0 °F 35.2 °F 29.8 °F 64% 29.50 in 10.0 mi South 9.2 mph - N/A   Clear
3:35 AM 40.5 °F 36.5 °F 29.7 °F 65% 29.49 in 10.0 mi South 5.8 mph - N/A   Clear
3:55 AM 40.8 °F 36.2 °F 29.8 °F 65% 29.48 in 10.0 mi South 6.9 mph - N/A   Clear
4:15 AM 42.4 °F 36.5 °F 30.2 °F 62% 29.48 in 10.0 mi South 10.4 mph - N/A   Clear
4:35 AM 43.0 °F 37.2 °F 30.9 °F 62% 29.48 in 10.0 mi South 10.4 mph - N/A   Clear
4:55 AM 42.6 °F 37.2 °F 30.6 °F 62% 29.46 in 10.0 mi South 9.2 mph - N/A   Clear
5:15 AM 45.0 °F 40.1 °F 31.5 °F 59% 29.45 in 10.0 mi South 9.2 mph - N/A   Clear
5:35 AM 42.4 °F 37.5 °F 30.2 °F 62% 29.45 in 10.0 mi SSE 8.1 mph - N/A   Clear
5:55 AM 42.6 °F 39.0 °F 30.2 °F 61% 29.45 in 10.0 mi SE 5.8 mph - N/A   Clear
6:15 AM 38.7 °F 34.3 °F 29.3 °F 69% 29.44 in 10.0 mi East 5.8 mph - N/A   Clear
6:35 AM 37.0 °F - 29.3 °F 74% 29.44 in 10.0 mi Calm Calm - N/A   Clear
6:55 AM 39.0 °F 34.8 °F 29.7 °F 69% 29.44 in 10.0 mi NNE 5.8 mph - N/A   Clear
7:15 AM 40.8 °F 32.9 °F 31.8 °F 70% 29.47 in 10.0 mi NNW 15.0 mph - N/A   Clear
7:35 AM 33.4 °F 20.8 °F 27.5 °F 79% 29.50 in 10.0 mi North 24.2 mph 29.9 mph N/A   Clear
7:55 AM 34.3 °F 22.0 °F 29.8 °F 84% 29.50 in 10.0 mi North 24.2 mph 32.2 mph N/A   Clear
8:15 AM 34.9 °F 23.0 °F 30.7 °F 85% 29.52 in 10.0 mi North 23.0 mph - N/A   Scattered Clouds
8:35 AM 35.6 °F 23.7 °F 31.6 °F 85% 29.52 in 10.0 mi North 24.2 mph - N/A   Scattered Clouds
8:55 AM 34.9 °F 22.2 °F 31.8 °F 89% 29.52 in 10.0 mi North 26.5 mph 31.1 mph N/A   Mostly Cloudy
9:15 AM 36.3 °F 24.4 °F 32.4 °F 86% 29.51 in 10.0 mi North 25.3 mph 31.1 mph N/A   Overcast
9:35 AM 36.0 °F 23.7 °F 32.2 °F 86% 29.53 in 10.0 mi North 26.5 mph 31.1 mph N/A   Overcast
9:55 AM 36.9 °F 25.9 °F 32.2 °F 83% 29.53 in 10.0 mi NNE 21.9 mph 27.6 mph N/A   Overcast
10:15 AM 36.5 °F 25.4 °F 32.0 °F 84% 29.54 in 10.0 mi NNE 21.9 mph 25.3 mph N/A   Overcast
10:35 AM 35.6 °F 25.5 °F 32.4 °F 88% 29.55 in 10.0 mi NNE 17.3 mph - N/A   Overcast
10:55 AM 36.7 °F 26.6 °F 32.4 °F 84% 29.55 in 10.0 mi NE 18.4 mph 24.2 mph N/A   Overcast
11:15 AM 36.5 °F 28.2 °F 32.5 °F 86% 29.55 in 10.0 mi NNE 12.7 mph 20.7 mph N/A   Overcast
11:35 AM 36.5 °F 27.4 °F 32.4 °F 85% 29.57 in 10.0 mi NE 15.0 mph - N/A   Overcast
11:55 AM 36.5 °F 26.0 °F 32.4 °F 85% 29.54 in 10.0 mi NNE 19.6 mph - N/A   Overcast
12:15 PM 37.6 °F 27.7 °F 33.1 °F 84% 29.54 in 10.0 mi NE 18.4 mph - N/A   Overcast
12:35 PM 38.3 °F 29.3 °F 32.2 °F 79% 29.53 in 10.0 mi NE 16.1 mph - N/A   Overcast
12:55 PM 38.5 °F 28.9 °F 32.0 °F 78% 29.51 in 10.0 mi NNE 18.4 mph - N/A   Overcast
1:15 PM 37.6 °F 29.6 °F 32.0 °F 80% 29.53 in 10.0 mi NE 12.7 mph - N/A   Overcast
1:35 PM 37.4 °F 29.3 °F 32.0 °F 81% 29.55 in 10.0 mi NNE 12.7 mph - N/A   Overcast
1:55 PM 36.3 °F 29.5 °F 32.0 °F 84% 29.60 in 7.0 mi NNW 9.2 mph - N/A   Overcast
2:15 PM 32.9 °F 25.3 °F 31.8 °F 96% 29.58 in 1.5 mi North 9.2 mph - N/A   Overcast
2:35 PM 32.5 °F 24.2 °F 32.0 °F 98% 29.58 in 2.0 mi NNE 10.4 mph - N/A   Overcast
2:55 PM 32.9 °F 23.2 °F 32.2 °F 97% 29.58 in 7.0 mi NNE 13.8 mph - N/A   Overcast
3:15 PM 35.4 °F 26.0 °F 34.3 °F 96% 29.58 in 10.0 mi NNE 15.0 mph 19.6 mph N/A   Overcast
3:35 PM 34.0 °F 23.8 °F 32.5 °F 94% 29.59 in 7.0 mi NNE 16.1 mph 21.9 mph N/A   Overcast
3:55 PM 32.4 °F 20.0 °F 30.7 °F 94% 29.61 in 10.0 mi North 21.9 mph 27.6 mph N/A   Overcast
4:15 PM 31.3 °F 17.9 °F 29.3 °F 92% 29.63 in 10.0 mi North 24.2 mph 29.9 mph N/A   Overcast
4:35 PM 30.2 °F 18.5 °F 28.4 °F 93% 29.65 in 2.0 mi North 17.3 mph - N/A   Overcast
4:55 PM 28.4 °F 15.4 °F 26.6 °F 93% 29.68 in 2.5 mi North 19.6 mph - N/A   Overcast
5:15 PM 27.3 °F 13.0 °F 25.7 °F 94% 29.67 in 1.0 mi North 23.0 mph - N/A   Overcast
5:35 PM 26.4 °F 10.6 °F 24.8 °F 94% 29.69 in 0.8 mi North 27.6 mph 31.1 mph N/A   Overcast
5:55 PM 25.7 °F 10.5 °F 24.4 °F 95% 29.70 in - North 24.2 mph 29.9 mph N/A   Overcast
6:15 PM 25.2 °F 9.8 °F 23.7 °F 94% 29.73 in - North 24.2 mph - N/A   Overcast
6:35 PM 24.6 °F 8.5 °F 23.0 °F 94% 29.73 in - North 26.5 mph 33.4 mph N/A   Overcast
6:55 PM 24.3 °F 7.1 °F 22.6 °F 94% 29.73 in - North 29.9 mph 33.4 mph N/A   Overcast
7:15 PM 23.7 °F 7.9 °F 22.1 °F 94% 29.75 in - North 24.2 mph 32.2 mph N/A   Overcast
7:35 PM 22.6 °F 6.4 °F 21.0 °F 93% 29.76 in - North 24.2 mph 36.8 mph N/A   Overcast
7:55 PM 22.8 °F 7.0 °F 21.0 °F 93% 29.78 in - North 23.0 mph 29.9 mph N/A   Overcast
8:15 PM 22.5 °F 6.9 °F 20.3 °F 91% 29.80 in - North 21.9 mph 26.5 mph N/A   Overcast
8:35 PM 21.7 °F 7.5 °F 19.6 °F 91% 29.81 in - North 17.3 mph - N/A   Overcast
8:55 PM 21.6 °F 7.3 °F 19.4 °F 91% 29.81 in - North 17.3 mph - N/A   Overcast
9:15 PM 21.7 °F 9.0 °F 19.4 °F 91% 29.82 in - North 13.8 mph - N/A   Unknown
9:55 PM 22.1 °F 10.0 °F 17.6 °F 83% 29.82 in - North 12.7 mph - N/A   Overcast
10:15 PM 21.6 °F 10.6 °F 16.5 °F 81% 29.83 in - North 10.4 mph - N/A   Overcast
10:35 PM 21.2 °F 10.1 °F 15.8 °F 80% 29.85 in - North 10.4 mph - N/A   Overcast
10:55 PM 20.7 °F 10.2 °F 15.1 °F 79% 29.85 in - NNW 9.2 mph - N/A   Overcast
11:15 PM 20.1 °F 10.3 °F 14.4 °F 78% 29.86 in - NNW 8.1 mph - N/A   Overcast
11:35 PM 19.4 °F 9.5 °F 14.4 °F 81% 29.86 in - NNW 8.1 mph - N/A   Mostly Cloudy
11:55 PM 19.2 °F 10.2 °F 14.0 °F 80% 29.86 in - NW 6.9 mph - N/A   Overcast